#timestamp,LO_Frequency,Hit,StdDev 
1509278415.2,286047006.0,N
1509278435.0,286047003.9,N
1509278435.9,286047003.9,N
1509278455.8,286047002.8,N
1509278475.6,286047001.7,N
1509278495.4,286047005.9,N
1509278515.3,286047005.7,N
1509278535.1,286047000.0,N
1509278555.8,286047004.3,N
1509278575.7,286047000.3,N
1509278595.5,286047001.8,N
1509278615.3,286047000.0,N
1509278635.2,286047001.7,N
1509278655.0,286047005.3,N
1509278655.9,286047005.3,N
1509278675.8,286047010.8,Y
1509278695.6,286047010.7,P
1509278715.4,286047012.3,N
1509278735.3,286047009.7,N
1509278755.1,286047006.4,N
1509278756.0,286047006.4,N
1509278775.8,286047008.9,N
1509278795.7,286047006.8,N
1509278815.5,286047008.3,N
1509278835.3,286047007.4,N
1509278855.2,286047006.9,N
1509278875.9,286047008.4,Y
1509278895.7,286046999.0,P
1509278915.6,286046997.7,N
1509278935.4,286046994.3,N
1509278955.2,286046992.3,N
1509278975.1,286046992.0,N
1509278976.0,286046992.0,N
1509278995.8,286046995.1,N
1509279015.6,286046995.0,N
1509279035.5,286046997.0,N
1509279055.3,286046998.3,N
1509279075.1,286046997.9,N
1509279095.9,286046993.9,N
1509279115.7,286046998.0,N
1509279135.5,286046992.0,N
1509279155.4,286046996.2,N
1509279175.2,286046994.9,N
1509279195.0,286046994.2,N
1509279195.9,286046994.2,N
1509279215.8,286046997.6,N
1509279235.6,286046997.9,N
1509279255.4,286046993.5,N
1509279275.3,286046990.6,N
1509279295.1,286046993.2,N
1509279315.9,286046996.4,N
1509279335.7,286046997.7,N
1509279355.5,286046995.3,N
1509279375.4,286046995.1,N
1509279395.2,286046990.6,N
1509279415.0,286046989.3,Y
1509279415.9,286046989.3,P
1509279435.8,286046992.2,N
1509279455.6,286046994.6,N
1509279475.4,286046994.8,N
1509279495.3,286046994.2,N
1509279515.1,286046988.5,Y
1509279535.8,286046994.8,P
1509279555.7,286046999.3,N
1509279575.5,286047000.6,N
1509279595.3,286046997.1,N
1509279615.2,286046998.5,N
1509279635.0,286046998.1,N
1509279635.9,286046998.1,N
1509279655.8,286046995.9,N
1509279675.6,286046991.5,Y
1509279695.4,286046993.4,P
1509279715.3,286046994.7,N
1509279735.1,286046991.5,P
1509279736.0,286046991.5,Y
1509279755.8,286046994.7,P
1509279775.7,286046994.2,P
1509279795.5,286046997.7,P
1509279815.4,286046994.8,Y
1509279835.2,286046998.6,P
1509279855.0,286046999.0,N
1509279855.9,286046999.0,N
1509279875.8,286046999.3,N
1509279895.6,286046999.7,N
1509279915.4,286047003.9,N
1509279935.3,286047004.2,N
1509279955.1,286047007.5,N
1509279956.0,286047007.5,N
1509279975.8,286047008.4,N
1509279995.7,286047013.2,Y
1509280015.5,286047009.2,P
1509280035.3,286047004.2,N
1509280055.2,286047004.2,N
1509280075.9,286047005.9,N
1509280095.7,286047003.6,N
1509280115.6,286047006.8,Y
1509280135.4,286047002.8,P
1509280155.2,286046999.9,N
1509280175.1,286047004.3,N
1509280176.0,286047004.3,N
1509280195.8,286047005.5,Y
1509280215.7,286047006.9,P
1509280235.5,286047004.0,N
1509280255.3,286047005.1,P
1509280275.2,286047005.3,Y
1509280295.9,286046998.4,P
1509280315.7,286046998.5,N
1509280335.6,286047002.1,N
1509280355.4,286047001.1,N
1509280375.2,286047004.1,N
1509280395.1,286047000.3,N
1509280396.0,286047000.3,N
1509280415.8,286047000.1,N
1509280435.7,286047007.6,Y
1509280455.5,286047004.8,P
1509280475.3,286047011.0,P
1509280495.2,286047008.3,N
1509280515.9,286047008.5,N
1509280535.7,286047005.1,N
1509280555.6,286047004.5,N
1509280575.4,286047005.2,N
1509280595.2,286047002.8,N
1509280615.1,286047003.7,N
1509280616.0,286047003.7,N
1509280635.8,286047000.0,N
1509280655.6,286047000.6,N
1509280675.5,286046998.8,N
1509280695.3,286047000.4,N
1509280715.1,286047000.0,N
1509280735.9,286047002.1,N
1509280755.7,286047002.6,N
1509280775.5,286047003.3,N
1509280795.4,286047005.7,N
1509280815.2,286047005.4,N
1509280835.0,286047004.3,N
1509280835.9,286047004.3,N
1509280855.8,286047002.3,N
1509280875.6,286046998.7,N
1509280895.4,286047002.8,N
1509280915.3,286047001.0,N
1509280935.1,286047003.9,N
1509280955.8,286046999.8,N
1509280975.7,286047003.6,N
1509280995.5,286047004.4,N
1509281015.3,286047000.5,N
1509281035.2,286047001.7,N
1509281055.0,286047001.2,N
1509281055.9,286047001.2,N
1509281075.8,286046996.8,N
1509281095.6,286046994.9,N
1509281115.4,286046998.8,N
1509281135.3,286046995.0,N
1509281155.1,286046998.0,N
1509281156.0,286046998.0,N
1509281175.8,286046996.5,N
1509281195.7,286046999.0,N
1509281215.5,286046997.3,N
1509281235.3,286046997.0,N
1509281255.2,286046998.3,N
1509281275.9,286046997.0,N
1509281295.7,286046993.7,N
1509281315.6,286046992.6,N
1509281335.4,286046992.7,N
1509281355.2,286046995.1,N
1509281375.1,286046997.2,N
1509281376.0,286046997.2,N
1509281395.8,286046998.6,N
1509281415.6,286046994.4,N
1509281435.5,286046989.5,Y
1509281455.3,286046993.1,P
1509281475.2,286046992.1,P
1509281495.9,286046990.2,P
1509281515.7,286046990.1,Y
1509281535.6,286047002.5,P
1509281555.4,286046997.2,N
1509281575.2,286046997.4,N
1509281595.1,286046997.9,N
1509281596.0,286046997.9,N
1509281615.8,286047000.9,N
1509281635.6,286047005.2,N
1509281655.5,286047005.5,N
1509281675.3,286047006.9,N
1509281695.1,286047004.0,N
1509281715.9,286047004.0,N
1509281735.7,286047003.5,N
1509281755.5,286047005.5,N
1509281775.4,286047006.7,N
1509281795.2,286047008.2,N
1509281815.1,286047012.3,N
1509281816.0,286047012.3,N
1509281835.8,286047011.8,N
1509281855.6,286047011.0,N
1509281875.5,286047006.1,N
1509281895.3,286047006.7,N
1509281915.1,286047008.9,N
1509281935.9,286047006.3,N
1509281955.7,286047007.1,N
1509281975.5,286047009.0,N
1509281995.4,286047008.7,N
